Temperature
16 16 16 15 15 16 16 16 16 15 15 15 15 15 15 16 16 16 15 15 15 15 15 15 15 15 15 15 15 15 15 15 15 15 15 15 16 16 16 16 16 16 16
16 15 15 15 15 15 15 15 15 15 15 15 15 15 15 15 15 15 15 15 15 15 15 15 15 15 15 15 15 15 15 15 15 15 15 15 15 15 15 15 15 15 15
15 16 15 15 15 15 15 15 15 15 15 15 15 15 15 15 15 15 15 15 15 15 15 15 15 15 15 15 15 15 15 15 15 15 15 15 15 15 15 15 15 15 15
15 15 15 15 15 15 15 15 15 15 15 15 15 15 15 15 15 15 15 15 15 15 15 15 15 15 15 14 14 15 15 15 15 15 15 15 14 14 14 14 14 14 14
15 15 15 15 15 15 15 15 15 15 15 15 15 15 15 15 15 15 15 15 15 15 15 15 15 14 14 14 14 14 14 14 14 14 14 14 14 14 14 14 14 14 14
15 15 15 15 15 15 15 15 15 15 15 15 15 14 14 14 14 14 14 14 14 14 14 14 14 14 14 14 14 14 14 14 14 14 14 14 14 14 14 14 14 14 14
15 15 15 15 15 15 15 15 15 15 15 15 15 14 14 14 14 14 14 14 14 14 14 14 14 14 14 14 14 14 14 14 14 14 14 14 14 14 14 14 14 14 13
15 15 15 15 15 15 15 15 15 15 15 15 15 14 14 14 14 14 14 14 14 14 14 14 14 14 14 14 14 14 14 14 14 14 14 14 14 14 14 13 13 13 13
15 15 15 15 15 15 15 15 15 15 15 15 15 15 14 14 14 14 14 14 14 14 14 14 14 14 14 14 14 14 14 14 14 13 13 13 13 13 13 13 13 13 13
15 15 15 15 15 15 15 15 15 15 15 15 15 15 15 14 14 13 13 13 13 13 13 13 13 13 13 13 14 14 13 13 13 13 13 13 13 13 13 13 12 12 12
15 15 15 15 15 15 15 15 15 15 15 15 15 15 15 14 14 14 13 13 13 13 13 13 13 13 13 13 13 13 13 13 13 13 13 13 13 12 12 12 12 12 12
15 15 15 15 15 15 15 15 15 15 15 15 15 15 15 15 14 14 14 13 13 13 13 13 13 13 13 13 13 13 13 13 13 13 13 12 12 12 12 12 12 11 11
15 15 15 15 15 15 15 15 15 15 15 15 15 15 15 15 15 15 14 14 13 13 13 13 13 13 13 13 13 13 13 13 13 12 12 12 12 12 12 12 11 11 11
15 15 15 15 15 15 15 15 15 15 15 15 15 15 15 15 14 15 14 14 14 13 13 13 13 13 13 13 13 12 12 12 12 12 12 12 12 12 12 11 11 11 11
15 15 15 15 15 15 15 15 15 15 15 15 15 15 15 14 14 14 14 14 14 13 13 13 12 12 12 12 12 12 12 12 12 12 12 12 11 11 11 11 11 11 11
15 15 15 15 15 15 15 15 15 15 15 15 14 14 14 14 14 14 14 14 14 14 13 13 12 12 12 12 12 12 12 12 12 12 12 11 11 11 11 11 10 10 10
15 15 15 15 15 15 15 15 15 15 14 14 14 14 14 14 14 14 14 14 14 13 13 13 12 12 12 12 12 12 12 12 12 11 11 11 11 11 10 10 10 10 10
15 15 15 15 15 15 15 15 15 14 14 14 14 14 14 14 14 14 14 14 13 13 13 13 12 12 12 12 12 12 12 12 11 11 11 11 10 10 10 10 10 10 10
15 15 15 15 15 15 15 15 14 14 14 14 14 14 14 14 14 14 13 13 13 13 13 13 12 12 12 12 12 12 11 11 11 11 11 10 10 10 10 10 9 9 9
15 15 15 15 15 15 15 15 14 14 14 14 14 14 14 14 14 13 13 13 13 13 13 12 12 12 12 11 11 11 11 11 11 10 10 10 10 10 10 9 9 9 9
15 15 15 15 14 14 14 14 14 14 14 14 14 14 13 13 13 13 13 13 13 12 12 12 12 12 11 11 11 11 11 10 10 10 10 10 10 9 9 9 9 9 9
15 15 15 14 14 14 14 14 14 14 14 14 14 13 13 13 13 13 13 13 12 12 12 12 12 12 11 11 11 11 10 10 10 10 10 10 9 9 9 9 9 8 8
15 15 14 14 14 14 14 14 14 14 14 14 13 13 13 13 13 13 13 13 12 12 12 12 12 11 11 11 11 10 10 10 10 10 9 9 9 9 9 8 8 8 8
15 14 14 14 14 14 14 14 14 14 14 13 13 13 13 13 13 13 12 12 12 12 12 11 11 11 11 11 10 10 10 10 10 9 9 9 9 8 8 8 8 8 7
14 14 14 14 14 14 14 14 13 13 13 13 13 13 12 12 12 12 12 12 12 12 11 11 11 11 11 10 10 10 10 9 9 9 9 8 8 8 8 8 8 7 7
14 14 14 14 14 14 13 13 13 13 13 13 13 12 12 12 12 12 12 12 12 11 11 11 11 11 10 10 10 9 9 9 9 8 8 8 8 7 7 7 7 7 7
Wind_Speed
2 1 1 2 3 4 5 5 5 7 7 8 8 7 6 6 7 7 7 10 10 10 10 10 10 11 11 11 11 11 10 10 11 10 10 10 9 9 9 9 9 9 9
3 2 2 3 4 5 6 6 6 5 5 6 6 6 6 6 6 7 7 8 10 10 10 10 10 10 10 10 10 10 10 10 10 10 11 11 11 10 10 10 9 9 9
5 4 3 3 4 7 8 7 7 6 5 5 5 5 5 5 6 6 7 7 8 8 9 9 10 10 10 10 10 10 10 10 10 10 10 10 10 10 10 10 10 10 9
7 6 4 3 5 7 6 4 4 5 5 4 4 3 3 4 5 5 6 7 7 7 8 10 10 9 9 9 9 9 10 10 10 10 10 10 10 10 10 10 11 11 10
8 7 4 4 6 6 4 4 4 4 4 4 4 4 3 3 3 5 5 6 6 7 7 8 9 9 9 9 9 9 10 10 10 10 10 10 10 10 10 11 11 11 11
8 7 5 5 6 4 4 4 4 4 3 3 5 5 4 4 4 4 3 4 5 5 6 6 7 7 8 8 8 8 9 9 10 10 10 10 10 10 10 10 10 11 11
7 6 5 4 4 4 4 4 4 4 3 3 4 4 5 5 5 4 4 4 4 4 4 5 6 6 6 7 7 7 8 8 9 10 10 10 10 9 9 10 10 11 11
6 6 5 3 3 4 4 4 3 3 1 2 3 3 3 4 4 5 4 3 3 4 4 5 6 5 6 6 7 8 8 8 9 9 9 9 9 9 9 9 10 10 11
5 5 5 4 4 4 3 3 3 4 2 1 2 3 3 2 1 4 4 3 3 3 3 5 5 5 5 5 6 7 8 8 8 8 8 8 8 9 9 9 10 10 10
3 4 5 5 4 3 3 2 3 2 3 2 1 1 2 4 3 1 3 4 4 3 3 3 4 5 5 5 6 7 7 7 7 7 7 8 8 8 8 9 9 10 10
2 4 4 5 4 3 3 2 3 3 2 3 2 2 3 3 3 3 1 2 3 3 3 3 3 4 4 4 4 6 6 7 6 6 7 7 7 8 8 8 8 9 9
2 3 4 4 4 3 3 3 3 3 3 3 2 2 3 3 2 3 2 1 1 2 3 3 2 2 2 3 3 5 6 6 6 6 6 6 7 7 7 8 8 9 9
1 1 3 3 3 3 3 4 3 3 3 3 3 2 2 2 2 3 4 2 1 1 2 2 2 1 1 2 2 3 4 4 4 5 5 5 6 6 7 7 7 8 8
3 3 3 3 3 4 4 4 3 3 3 3 3 3 2 1 2 3 3 4 2 2 2 2 2 0 1 1 1 2 3 3 3 3 4 4 4 5 6 6 7 7 7
3 3 4 3 3 4 4 4 3 3 3 3 3 3 2 1 2 2 2 3 4 2 1 2 1 1 1 1 1 2 2 2 2 2 2 3 4 4 5 5 6 6 6
3 4 4 4 4 3 4 3 3 3 3 2 2 3 3 2 2 2 2 2 3 4 2 2 2 2 1 1 1 2 1 2 2 2 2 3 3 3 4 4 5 5 6
4 5 5 4 4 4 4 4 3 3 3 2 2 3 2 2 2 2 2 2 2 3 3 1 1 1 1 1 2 2 2 2 2 2 2 2 2 2 2 3 4 4 5
4 4 4 4 4 4 4 5 4 3 3 2 2 2 1 2 2 1 2 2 2 2 3 2 0 1 1 0 1 1 2 2 1 1 1 1 1 1 1 2 2 3 3
4 4 4 4 4 4 4 4 4 3 3 3 3 3 2 3 2 1 2 2 1 2 2 3 1 1 1 1 1 1 2 1 1 1 1 1 1 1 1 1 1 2 2
4 4 4 4 4 4 4 3 3 3 3 2 2 2 2 3 4 3 2 2 2 3 3 3 1 0 0 1 1 0 1 1 1 1 0 1 1 1 1 1 1 1 2
4 4 4 3 3 3 3 4 3 3 3 2 1 0 1 2 4 3 3 3 4 3 3 2 1 0 0 0 1 1 1 1 2 1 0 1 1 1 2 3 2 3 2
3 3 4 4 3 2 4 6 5 4 3 3 2 1 1 2 2 3 3 4 5 5 4 3 2 2 3 2 2 2 1 0 2 1 0 2 0 1 3 3 4 3 3
4 3 3 4 3 3 5 7 7 4 4 3 3 2 1 1 2 2 3 3 2 3 5 5 4 4 4 4 3 2 2 2 3 2 1 2 1 2 4 4 5 4 4
4 3 3 3 3 2 5 6 6 4 3 3 2 2 2 1 1 2 3 2 2 1 1 2 3 4 3 3 4 3 3 1 2 1 2 2 2 2 3 4 5 5 5
3 3 3 4 4 2 4 6 6 4 3 2 1 2 2 2 1 4 4 2 2 2 2 1 0 1 1 2 4 3 1 1 2 2 1 2 2 2 2 3 4 5 5
3 3 3 3 4 3 3 5 6 3 3 1 1 1 2 2 2 4 4 3 1 1 1 2 3 3 2 1 1 3 3 1 1 3 2 1 1 1 2 2 3 4 4
Wind_Direction
110 112 110 89 81 92 97 94 91 88 88 90 94 94 90 88 82 76 74 78 85 89 89 85 83 81 81 79 77 74 73 73 72 69 66 66 66 64 62 61 62 57 53
107 103 94 90 87 93 94 93 92 89 88 91 84 86 88 89 87 83 78 78 83 86 87 85 83 79 78 77 76 74 71 70 71 67 65 64 63 64 64 61 59 54 51
103 103 93 87 94 98 96 89 85 85 87 87 82 82 86 88 93 88 83 80 77 79 84 83 81 76 74 74 76 78 74 70 71 69 66 65 62 61 62 60 57 53 51
97 95 88 84 93 93 92 89 83 82 81 86 84 75 80 87 93 96 90 82 77 74 76 77 76 75 72 71 74 77 77 73 71 69 66 65 65 63 61 57 55 51 50
102 105 100 95 96 89 83 97 85 93 94 91 93 76 63 68 78 94 88 89 88 83 78 76 75 75 72 68 71 76 77 77 75 72 68 65 65 64 61 57 55 53 51
101 107 109 100 97 90 79 85 91 80 92 95 90 70 51 52 62 74 86 94 96 87 82 80 73 70 72 68 68 73 76 77 77 75 71 67 64 63 61 58 56 54 51
98 102 106 101 98 99 103 105 101 84 70 82 79 55 32 38 47 46 54 71 78 82 88 88 81 73 66 64 62 67 72 75 76 75 71 67 64 63 61 59 58 55 53
103 112 111 110 108 104 97 96 102 95 77 84 103 95 49 18 18 29 32 48 60 73 82 97 98 87 76 67 63 67 71 75 76 75 71 67 64 63 62 60 58 56 53
112 114 115 117 118 117 125 127 130 126 123 49 94 129 130 168 351 3 14 27 42 56 69 92 98 97 87 76 68 72 75 75 73 71 67 66 63 61 60 60 58 56 53
110 116 115 117 120 123 133 143 135 132 125 114 53 70 129 142 134 57 355 9 29 45 48 75 84 91 88 84 75 76 77 75 70 67 62 64 64 60 59 59 56 53 52
89 114 116 114 115 125 135 122 111 110 118 131 132 115 91 81 98 127 124 350 13 11 27 53 75 85 84 87 84 80 78 75 71 67 63 62 61 60 58 57 53 49 46
51 93 117 119 121 129 133 124 113 110 107 110 111 117 134 135 143 134 142 142 26 348 14 28 54 77 88 89 90 86 85 80 71 65 63 60 57 55 52 51 49 45 41
129 155 126 124 124 130 127 119 110 101 108 112 117 116 119 133 144 136 128 132 92 355 7 13 13 64 84 86 101 97 93 90 77 68 67 61 54 49 49 45 41 38 36
190 177 144 133 125 124 115 109 108 101 102 105 108 111 109 106 122 137 144 136 104 29 14 333 350 8 118 120 132 107 93 100 95 84 76 68 55 47 48 42 36 33 33
190 163 144 136 126 119 111 111 101 100 104 102 110 106 101 99 104 108 125 139 140 138 268 276 292 294 209 171 151 110 97 110 109 102 95 84 71 63 56 47 40 35 32
163 148 149 150 141 129 121 114 109 109 103 99 105 103 98 96 89 91 109 114 126 139 168 244 244 256 202 109 100 99 94 93 106 104 106 102 86 74 60 52 44 36 30
164 164 165 162 156 152 141 129 125 122 116 94 91 108 109 107 101 95 98 100 108 120 137 271 329 342 67 84 76 75 71 83 104 111 107 107 92 78 66 52 43 35 28
169 169 163 162 162 159 156 152 155 149 146 140 125 114 111 108 97 96 104 106 121 133 140 152 334 360 15 146 109 89 74 69 109 111 104 117 101 62 46 38 35 31 21
164 164 158 164 162 159 163 167 160 155 162 171 168 160 163 133 127 131 130 127 128 122 127 142 169 350 359 24 45 42 56 46 45 16 58 84 63 35 34 38 10 9 11
151 153 154 160 157 151 153 154 149 146 146 155 167 174 176 164 171 168 155 152 132 116 116 125 130 33 351 356 77 42 341 326 310 323 347 334 337 339 322 316 298 311 326
151 152 140 137 136 140 153 154 151 141 136 120 92 108 184 173 180 170 158 160 144 134 132 136 159 159 258 253 235 225 234 299 305 274 353 308 323 336 319 310 295 290 303
144 138 143 143 143 151 159 158 149 145 142 134 121 58 30 88 103 122 131 153 159 158 168 170 187 203 231 226 208 198 192 188 291 273 191 283 225 277 279 275 276 286 293
150 143 157 152 155 168 157 151 147 141 137 136 134 123 88 71 86 87 82 72 95 174 180 175 188 213 214 215 190 196 209 212 235 238 157 263 278 269 279 274 265 271 283
158 163 165 161 156 167 155 150 146 131 126 135 143 145 131 103 114 113 103 72 36 3 253 173 195 218 222 204 189 191 195 214 282 293 156 229 260 263 281 279 268 267 274
165 168 163 163 164 182 160 150 136 126 124 134 139 120 136 138 125 121 111 100 41 349 13 46 163 222 225 187 150 114 100 93 294 288 228 196 249 276 283 277 279 276 275
169 166 163 171 171 180 171 159 142 133 138 142 98 114 148 146 143 141 138 140 158 282 2 26 29 22 34 37 161 165 174 189 243 268 256 187 234 251 289 279 282 287 288
Height
1540 1540 1540 1540 1540 1540 1540 1540 1540 1540 1540 1540 1540 1540 1540 1540 1540 1540 1540 1540 1540 1540 1539 1539 1539 1539 1539 1539 1538 1538 1538 1538 1537 1537 1536 1536 1535 1535 1534 1534 1533 1532 1532
1541 1541 1541 1541 1541 1541 1541 1541 1541 1541 1541 1541 1541 1542 1542 1542 1542 1542 1542 1541 1541 1541 1540 1540 1540 1540 1540 1540 1539 1539 1539 1538 1538 1537 1537 1536 1536 1535 1535 1534 1534 1533 1532
1542 1542 1542 1542 1542 1542 1542 1542 1542 1542 1542 1543 1543 1543 1543 1543 1544 1544 1543 1543 1543 1542 1542 1541 1541 1541 1541 1541 1540 1540 1540 1539 1539 1538 1538 1537 1537 1536 1535 1535 1534 1533 1533
1542 1542 1543 1543 1543 1543 1543 1543 1543 1543 1544 1544 1544 1544 1545 1545 1545 1545 1545 1544 1544 1544 1543 1543 1542 1542 1542 1542 1541 1541 1540 1540 1539 1539 1539 1538 1538 1537 1536 1536 1535 1534 1533
1543 1543 1544 1544 1544 1544 1544 1544 1545 1545 1545 1545 1546 1546 1547 1547 1547 1546 1546 1546 1545 1545 1544 1544 1543 1543 1543 1543 1542 1542 1541 1541 1540 1540 1539 1539 1538 1538 1537 1536 1536 1535 1534
1544 1544 1544 1544 1545 1545 1545 1545 1546 1546 1547 1547 1547 1548 1548 1548 1548 1548 1547 1547 1546 1546 1545 1545 1544 1544 1544 1544 1543 1543 1542 1542 1541 1540 1540 1540 1539 1538 1538 1537 1536 1535 1534
1545 1545 1545 1545 1546 1546 1546 1547 1547 1547 1548 1548 1548 1549 1549 1549 1549 1549 1549 1548 1547 1546 1546 1545 1545 1545 1545 1545 1544 1544 1543 1543 1542 1541 1541 1540 1539 1539 1538 1537 1536 1535 1534
1546 1546 1546 1546 1547 1547 1547 1548 1548 1548 1549 1549 1549 1549 1550 1552 1551 1551 1550 1549 1548 1547 1546 1546 1546 1546 1546 1546 1545 1545 1544 1544 1543 1542 1542 1541 1540 1539 1538 1537 1537 1536 1535
1547 1547 1547 1547 1548 1548 1548 1548 1549 1549 1549 1550 1550 1550 1551 1551 1551 1552 1551 1550 1549 1548 1547 1547 1547 1547 1547 1547 1546 1546 1545 1545 1544 1543 1543 1542 1541 1540 1539 1538 1537 1536 1535
1548 1548 1548 1548 1548 1549 1549 1549 1549 1550 1550 1550 1550 1551 1551 1551 1551 1552 1553 1551 1550 1550 1549 1548 1548 1548 1548 1548 1547 1547 1546 1546 1545 1544 1544 1543 1542 1541 1540 1539 1538 1537 1536
1548 1548 1548 1549 1549 1549 1550 1550 1550 1550 1550 1550 1551 1551 1551 1552 1552 1552 1552 1552 1551 1551 1550 1550 1550 1549 1549 1549 1548 1548 1547 1546 1546 1545 1545 1544 1543 1541 1540 1539 1538 1537 1536
1548 1549 1549 1549 1550 1550 1550 1550 1550 1550 1551 1551 1551 1551 1551 1552 1552 1552 1552 1552 1552 1552 1552 1551 1551 1551 1550 1550 1549 1548 1548 1547 1547 1546 1545 1544 1543 1542 1541 1540 1539 1538 1536
1548 1549 1549 1550 1550 1550 1551 1551 1551 1551 1551 1551 1552 1552 1552 1552 1552 1552 1552 1552 1552 1552 1552 1552 1552 1552 1551 1551 1550 1550 1549 1548 1547 1547 1546 1545 1544 1543 1541 1540 1539 1537 1536
1549 1549 1549 1550 1550 1550 1551 1551 1551 1551 1551 1552 1552 1552 1552 1552 1552 1552 1552 1552 1552 1553 1553 1553 1553 1553 1552 1552 1551 1550 1550 1549 1548 1547 1546 1545 1544 1543 1541 1540 1538 1537 1536
1549 1549 1549 1550 1550 1550 1551 1551 1551 1551 1552 1552 1552 1552 1552 1552 1552 1553 1553 1553 1553 1552 1553 1553 1553 1553 1553 1552 1551 1551 1550 1549 1548 1547 1546 1545 1544 1543 1541 1540 1538 1537 1535
1548 1549 1549 1549 1550 1550 1551 1551 1552 1552 1552 1552 1552 1552 1553 1553 1553 1553 1553 1553 1553 1553 1552 1553 1553 1553 1552 1552 1551 1551 1550 1549 1548 1547 1546 1545 1544 1542 1541 1540 1538 1537 1535
1547 1548 1549 1549 1549 1550 1550 1551 1551 1552 1552 1552 1552 1553 1553 1553 1553 1553 1553 1552 1552 1552 1552 1552 1552 1552 1552 1551 1551 1550 1550 1549 1548 1547 1546 1544 1543 1542 1541 1539 1538 1536 1535
1547 1547 1548 1548 1548 1549 1549 1550 1550 1551 1552 1552 1552 1552 1552 1552 1552 1552 1552 1552 1552 1552 1552 1551 1552 1551 1551 1551 1550 1550 1549 1548 1547 1546 1545 1544 1543 1541 1540 1539 1537 1535 1534
1546 1546 1547 1547 1547 1548 1549 1549 1550 1550 1551 1551 1552 1552 1552 1552 1552 1552 1551 1551 1551 1551 1551 1551 1550 1550 1550 1550 1549 1549 1548 1547 1546 1545 1544 1543 1542 1540 1539 1537 1536 1534 1533
1544 1545 1546 1546 1547 1547 1548 1549 1549 1550 1550 1551 1551 1551 1551 1551 1551 1551 1550 1550 1550 1550 1550 1549 1549 1549 1549 1549 1548 1548 1547 1546 1545 1544 1543 1542 1541 1539 1537 1536 1534 1533 1531
1543 1544 1545 1545 1546 1546 1547 1548 1548 1549 1549 1550 1550 1550 1550 1550 1550 1550 1549 1549 1549 1549 1548 1548 1548 1548 1548 1547 1547 1546 1545 1544 1543 1542 1541 1540 1539 1537 1536 1534 1533 1531 1530
1541 1542 1543 1544 1545 1545 1546 1547 1547 1548 1548 1548 1548 1549 1549 1549 1549 1549 1548 1548 1548 1548 1547 1547 1546 1546 1546 1545 1545 1544 1543 1542 1541 1541 1539 1538 1537 1535 1534 1532 1531 1529 1528
1540 1540 1541 1542 1543 1544 1545 1545 1546 1546 1546 1547 1547 1547 1547 1547 1547 1547 1547 1547 1547 1546 1546 1546 1545 1544 1544 1543 1543 1542 1541 1540 1539 1538 1536 1535 1534 1532 1531 1529 1528 1527 1525
1537 1539 1540 1541 1541 1542 1543 1544 1544 1545 1545 1545 1545 1545 1545 1546 1546 1546 1545 1545 1545 1544 1544 1543 1543 1542 1542 1541 1540 1540 1539 1537 1536 1535 1534 1532 1530 1529 1528 1527 1525 1524 1522
1535 1537 1538 1539 1539 1540 1541 1542 1542 1543 1543 1543 1543 1543 1544 1544 1544 1544 1543 1543 1542 1542 1542 1541 1540 1540 1539 1538 1537 1536 1535 1534 1532 1531 1531 1529 1527 1526 1524 1523 1522 1521 1519
1533 1534 1535 1536 1537 1538 1539 1540 1540 1540 1541 1541 1541 1541 1541 1541 1541 1541 1541 1540 1539 1539 1539 1538 1538 1537 1536 1535 1534 1533 1532 1531 1529 1528 1527 1526 1524 1523 1521 1519 1518 1517 1516